Regional Weather Roundup
Issued by NWS Charleston, SC

Current Version | Previous Version | Text Only | Print | Product List | Glossary Off
Versions: 1 2 3 4 5 6 7 8 9 10 11 12 13 14 15 16 17 18 19 20 21 22 23 24 25 26 27 28 29 30 31 32 33 34 35 36 37 38 39 40 41 42 43 44 45 46 47 48 49 50

000
ASUS42 KCHS 240512
RWRCHS

Regional Weather Roundup
National Weather Service Charleston SC
1200 AM EST SAT FEB 24 2018

NOTE: "fair" indicates few or no clouds below 12,000 feet with no
significant weather and/or obstructions to visibility.

Not all stations are quality controlled. Use data with caution,
especially dewpoint observations.

SCZ027-030-031-034>040-042>050-240600-
...Southeast South Carolina...

CITY           SKY/WX    TMP DP  RH WIND       PRES   REMARKS
N Charleston   FAIR      63  63 100 S5        30.31F
Waterfront Prk   N/A     64  64 100 CALM      30.17F
Mount Pleasant FAIR      61  61 100 CALM      30.32S
Johns Island   FOG       63  63 100 CALM      30.32S VSB 1
Pinopolis        N/A     63  63 100 VRB2      30.22F
Moncks Corner  MOCLDY    59  59 100 CALM      30.31F FOG
Summerville    FAIR      61  61 100 CALM      30.32F
Beaufort MCAS  FAIR      65  64  97 S5        30.31F
Beaufort Arpt  FAIR      63  61  94 CALM      30.31F
Hilton Head Is FAIR      63  61  94 CALM      30.32F
Walterboro     FOG       59  59 100 CALM      30.32S VSB 1/4
Allendale      FAIR      63  63 100 CALM      30.30S

...Southern Midlands and Pee Dee...

CITY           SKY/WX    TMP DP  RH WIND       PRES   REMARKS
Georgetown     FAIR      63  61  94 CALM      30.32F
Kingstree      FAIR      61  59  94 CALM      30.31F
Orangeburg     FAIR      63  61  93 S3        30.30F
Barnwell         N/A     66  64  94 CALM      30.30F
Aiken          FAIR      61  61 100 SE5       30.32F
Manning        FAIR      61  45  55 MISG      30.31F
Columbia       FAIR      65  61  87 CALM      30.28F
Sumter         FAIR      63  60  91 S3        30.28F
Florence       FAIR      63  62  97 S5        30.31S
Myrtle Beach   FAIR      65  63  93 S13       30.32F
N Myrtle Beach FAIR      64  62  93 SW8       30.31F

$$

GAZ063-065-086>088-099>101-113>116-118-119-134>141-150-240600-
...Southeast Georgia...

CITY           SKY/WX    TMP DP  RH WIND       PRES   REMARKS
Savannah Arpt  FAIR      63  63 100 S5        30.31F
Hunter AAF     FAIR      65  62  91 CALM      30.28F
Fort Stewart   FAIR      60  60 100 CALM      30.29S FOG
Statesboro     FAIR      62  32  33 CALM      30.30F
Sylvania       FAIR      64  64 100 CALM      30.31F
Claxton        FAIR      61  61  98 CALM      30.30F

...CSRA, Central and far Southeast Georgia...

CITY           SKY/WX    TMP DP  RH WIND       PRES   REMARKS
Thomson        FAIR      64  59  83 W5        30.33S
Augusta-Bush   FAIR      62  59  90 SE8       30.27F
Augusta-Daniel FAIR      66  59  78 SE5       30.29F
Swainsboro     FAIR      64  63  94 SE5       30.29F
Vidalia        FAIR      64  63  94 CALM      30.29F
Eastman        FAIR      64  56  77 SE3       30.30F
Hazlehurst     FAIR      68  61  78 S5        30.27F
Alma           FAIR      65  62  90 SE6       30.29F
Waycross       FAIR      65  62  90 SE5       30.30S
Jesup          FAIR      63  59  88 CALM      30.31S
Baxley         FAIR      63  63 100 SE3       30.29F
Brunswick      FOG       59  57  94 CALM      30.31S VSB 1/2
Saint Simons   FAIR      66  64  93 SE6       30.30S

$$

SCZ027-028-034-036>038-045-046-048>050-GAZ119-141-240600-
...Lake and Supplemental Coastal Observations...

STATION/POSITION TIME  TEMP    WIND        PRES    WAVE   SWELL
                       AIR SEA DIR/SP/G            HT/PER HT/PER/DIR
                 (UTC) (F)     (DEG/KT/KT) (MB)    (FT/S) (FT/S/D)
Winyah Bay       0345   66     210/  3     1027.0
Lake Murray      0420   65     180/  3/  6 1025.1F
ACE Basin NERRS  0345   62        CALM     1027.0
Fort Pulaski     0442   65 62  180/  1/  2 1026.6F
Sapelo Island    0400   65     120/  3     1026.0

$$

ANZ835-935-AMZ111-154-330-350-352-354-370-450-454-472-240600-
...C-MAN and Buoy Observations...

STATION/POSITION TIME  TEMP    WIND        PRES    WAVE   SWELL
                       AIR SEA DIR/SP/G            HT/PER HT/PER/DIR
                 (UTC) (F)     (DEG/KT/KT) (MB)    (FT/S) (FT/S/D)
Buoy 41004       0450   69 68  130/  6/  8 1026.3F   5/10   5/140/10
Buoy 41008       0350   63 60  130/  6/  6 1026.1    4/ 8   3/130/ 8
Folly Beach CMAN 0400   64     220/  2/  2 1027.3F
Capers Nearshore 0408   60 63  270/  4/  8 1026.6S
Fripp Nearshore  0408   60 63   70/  2/  4 1025.4F


STATION/POSITION TIME  TEMP    WIND        PRES    WAVE   SWELL
                       AIR SEA DIR/SP/G            HT/PER HT/PER/DIR
                 (UTC) (F)     (DEG/KT/KT) (MB)    (FT/S) (FT/S/D)
5E St. Marys GA  0430      66                N/A     3/ 9   2/ 90/14
Frying Pan Buoy  0450   72 71  170/ 10/ 14 1026.2F   3/ 9   3/140/ 9
Buoy 41025       0500   72 73  220/ 12/ 16 1026.5
Cape Lookout NC  0400          180/  8/  9 1027.0F
Buoy 41002       0450   71 73  170/  8/ 12 1027.8F   5/ 9   5/110/ 9
Buoy 41010       NOT AVBL
St Augustine FL  0500   69 68  140/  8/  8 1025.6F


$$




USA.gov is the U.S. government's official web portal to all federal, state and local government web resources and services.